Showing default

NEONSAT-1, 59587

Orbit data source: Space-Track

NEONSAT-1, 59587 is a payload satellite owned by KAIST (KR) in SSO that was launched on Tue, 23 Apr 2024 UTC via an ELECTRON launch vehicle from the Rocket Lab Launch Complex (RLLC). Payload-class satellites include a variety of spacecraft equipped with specific instruments for various scientific and technological missions. These include communications satellites like Starlink; space stations such as the ISS; scientific satellites like the Hubble; Earth observation satellites from companies like Planet Labs, Umbra, and HawkEye 360; GPS; miniature CubeSats for education and research; and military/defense satellites.

Loading next visibility...
Identifier
59587, 2024-077A
Orbit
SSO
Country
Flag of UnknownUnknown / SKOR
Related business
Manufacturer
KAIST/SATRHW
Mission
Operational Civil Imaging
Bus & Motor
NEONSAT, Unknown motor
Mass
~100 kg wet, ~100 kg dry
Launch date (UTC)
2024-04-23 (1 year ago)
Launch vehicle
ELECTRON
Launch site
Rocket Lab Launch Complex (RLLC)
Object type
Payload
Rocket body
Debris
Shape & HBR
Box + Cyl + 4 Pan, 0.5 m
Radar Cross Section
0.625 m², Medium (>0.1 m² and < 1m²)

Expand to show TLE details & history
Last TLE update: 11 hours ago

TLE from 11 hours ago
0 NEONSAT-1
1 59587U 24077A   25289.22685153  .00014558  00000-0  47949-3 0  9991
2 59587  97.3707   8.7086 0011031 178.1553 181.9731 15.31525715 82302
Epoch: 2025-10-16T05:26Z
TLE epoch observation values (Epoch: 2025-10-16T05:26:39.972Z)
Latitude
-0.00002°
Longitude
-97.94755°
Altitude
481.919 km
Speed
7.62 km/s
True Right ascension
00h 34m 50s
True Declination
0° 00' 00"
Sunlit
Object was in full shadow at epoch
Visualization orbit readout
Latitude
Unknown
Longitude
Unknown
Altitude
Unknown
Speed
Unknown
Apparent Right ascension
Unknown
Apparent Declination
Unknown
Sunlit
N/A
Visualization observer readout
Local Sidereal Time
11:29:03
Azimuth
Unknown
Elevation
Unknown
Doppler factor
Unknown
Orbital elements
Apogee altitude
475.761 km
Perigee altitude
460.656 km
Semi-major axis
6,846.346 km
Eccentricity
0.0011
Inclination
97.3707°
RAAN
8.7086°
Arg. of periapsis
178.1553°
True anomaly
181.96875°
Mean anomaly
181.9731°
Eccentric anomaly
181.97093°
Mean motion
3.83138 °/min
Orbital period
93.96 mins
BSTAR
0.00047949
Loading maneuver chart data...
Computing Atmospheric mass density...
Loading historical data...
Loading historical data...
Loading historical data...
Loading historical data...
Loading historical data...
Loading historical data...
Loading historical data...
Other satellites on launch #77 in the year 2024 (2024-04-23 UTC)

Documentation

Showing up to 5 results
|